Telluride, CO

11:00 AM MDT on May 27, 2017 (GMT -0600)
Telluride Regional

Weather History for KTEX - November, 2013

Change the Weather History Date:

Saturday, November 9, 2013

  Actual Average Record
Temperature  
Mean Temperature 42 °F -  
Max Temperature 51 °F 39 °F 59 °F (2007)
Min Temperature 32 °F 24 °F 14 °F (2011)
Degree Days  
Heating Degree Days 24    
Moisture  
Dew Point 19 °F    
Average Humidity 47    
Maximum Humidity 60    
Minimum Humidity 26    
Precipitation  
Precipitation 0.00 in - - ()
Sea Level Pressure  
Sea Level Pressure 30.32 in    
Wind  
Wind Speed 6 mph (SE)    
Max Wind Speed 16 mph    
Max Gust Speed 18 mph    
Visibility 10 miles    
Events      
Averages and records for this station are not official NWS values.
T = Trace of Precipitation, MM = Missing Value Source: NWS Daily Summary

Daily Weather History Graph

Daily Weather History Graph

Search for Another Location

Airport or City:

Trip Planner

Search our weather history database for the weather conditions in past years. The results will help you decide how hot, cold, wet, or windy it might be!

Date:

Astronomy

Nov. 09, 2013 Rise Set
Actual Time 6:46 AM MST 5:04 PM MST
Civil Twilight 6:18 AM MST 5:32 PM MST
Nautical Twilight 5:46 AM MST 6:03 PM MST
Astronomical Twilight 5:15 AM MST 6:34 PM MST
Moon 12:25 PM MST (11/9) 11:36 PM MST (11/9)
Length of Visible Light 11h 13m
Length of Day
10h 18m
Waxing Crescent, 45% of the Moon is Illuminated
Nov 9
Waxing Crescent
Nov 9
First Quarter
Nov 17
Full
Nov 25
Last Quarter
Dec 2
New

Hourly Weather History & Observations

Time (MST) Temp. Windchill Dew Point Humidity Pressure Visibility Wind Dir Wind Speed Gust Speed Precip Events Conditions
12:15 AM 33.8 °F 27.7 °F 19.4 °F 56% 30.27 in 10.0 mi SE 6.9 mph - N/A   Clear
12:35 AM 33.8 °F 28.6 °F 19.4 °F 56% 30.27 in 10.0 mi ESE 5.8 mph - N/A   Clear
12:55 AM 33.8 °F 29.6 °F 17.6 °F 52% 30.27 in 10.0 mi ESE 4.6 mph - N/A   Clear
1:15 AM 33.8 °F 28.6 °F 17.6 °F 52% 30.27 in 10.0 mi ESE 5.8 mph - N/A   Clear
1:35 AM 32.0 °F 26.4 °F 17.6 °F 55% 30.27 in 10.0 mi ESE 5.8 mph - N/A   Clear
1:55 AM 32.0 °F 27.5 °F 17.6 °F 55% 30.27 in 10.0 mi East 4.6 mph - N/A   Clear
2:15 AM 32.0 °F - 19.4 °F 60% 30.27 in 10.0 mi Calm Calm - N/A   Clear
2:35 AM 32.0 °F 27.5 °F 17.6 °F 55% 30.27 in 10.0 mi ESE 4.6 mph - N/A   Clear
2:55 AM 32.0 °F 25.6 °F 19.4 °F 60% 30.27 in 10.0 mi SE 6.9 mph - N/A   Clear
3:15 AM 32.0 °F 25.6 °F 19.4 °F 60% 30.27 in 10.0 mi SE 6.9 mph - N/A   Clear
3:35 AM 32.0 °F 26.4 °F 19.4 °F 60% 30.27 in 10.0 mi SE 5.8 mph - N/A   Clear
3:55 AM 32.0 °F 27.5 °F 19.4 °F 60% 30.27 in 10.0 mi SE 4.6 mph - N/A   Clear
4:15 AM 32.0 °F 25.6 °F 19.4 °F 60% 30.27 in 10.0 mi ESE 6.9 mph - N/A   Clear
4:35 AM 32.0 °F 24.8 °F 17.6 °F 55% 30.28 in 10.0 mi SE 8.1 mph - N/A   Clear
4:55 AM 32.0 °F 27.5 °F 19.4 °F 60% 30.29 in 10.0 mi ESE 4.6 mph - N/A   Clear
5:15 AM 32.0 °F 26.4 °F 17.6 °F 55% 30.29 in 10.0 mi ESE 5.8 mph - N/A   Clear
5:35 AM 32.0 °F 27.5 °F 17.6 °F 55% 30.29 in 10.0 mi ESE 4.6 mph - N/A   Clear
5:55 AM 32.0 °F 26.4 °F 19.4 °F 60% 30.29 in 10.0 mi ESE 5.8 mph - N/A   Clear
6:15 AM 32.0 °F 26.4 °F 19.4 °F 60% 30.30 in 10.0 mi ESE 5.8 mph - N/A   Clear
6:35 AM 32.0 °F 26.4 °F 17.6 °F 55% 30.30 in 10.0 mi ESE 5.8 mph - N/A   Clear
6:55 AM 32.0 °F 28.7 °F 17.6 °F 55% 30.31 in 10.0 mi East 3.5 mph - N/A   Clear
7:15 AM 32.0 °F 26.4 °F 17.6 °F 55% 30.31 in 10.0 mi ESE 5.8 mph - N/A   Clear
7:35 AM 32.0 °F 27.5 °F 19.4 °F 60% 30.31 in 10.0 mi SE 4.6 mph - N/A   Clear
7:55 AM 33.8 °F 29.6 °F 19.4 °F 56% 30.32 in 10.0 mi ESE 4.6 mph - N/A   Clear
8:15 AM 33.8 °F 29.6 °F 19.4 °F 56% 30.33 in 10.0 mi ESE 4.6 mph - N/A   Clear
8:35 AM 35.6 °F 31.7 °F 21.2 °F 56% 30.33 in 10.0 mi ESE 4.6 mph - N/A   Clear
8:55 AM 37.4 °F 33.8 °F 21.2 °F 52% 30.33 in 10.0 mi SE 4.6 mph - N/A   Clear
9:15 AM 41.0 °F - 19.4 °F 42% 30.33 in 10.0 mi Calm Calm - N/A   Clear
9:35 AM 42.8 °F 41.1 °F 21.2 °F 42% 30.33 in 10.0 mi ESE 3.5 mph - N/A   Clear
9:55 AM 44.6 °F - 19.4 °F 37% 30.33 in 10.0 mi Calm Calm - N/A   Clear
10:15 AM 44.6 °F - 19.4 °F 37% 30.33 in 10.0 mi Calm Calm - N/A   Clear
10:35 AM 44.6 °F - 19.4 °F 37% 30.33 in 10.0 mi Calm Calm - N/A   Clear
10:55 AM 48.2 °F - 17.6 °F 30% 30.33 in 10.0 mi Calm Calm - N/A   Clear
11:15 AM 50.0 °F - 17.6 °F 28% 30.33 in 10.0 mi West 4.6 mph - N/A   Clear
11:35 AM 51.8 °F - 17.6 °F 26% 30.32 in 10.0 mi West 8.1 mph - N/A   Clear
11:55 AM 51.8 °F - 17.6 °F 26% 30.32 in 10.0 mi West 8.1 mph - N/A   Clear
12:15 PM 50.0 °F - 17.6 °F 28% 30.31 in 10.0 mi West 8.1 mph - N/A   Clear
12:35 PM 51.8 °F - 17.6 °F 26% 30.30 in 10.0 mi WSW 9.2 mph - N/A   Clear
12:55 PM 50.0 °F - 17.6 °F 28% 30.30 in 10.0 mi West 12.7 mph - N/A   Clear
1:15 PM 51.8 °F - 17.6 °F 26% 30.30 in 10.0 mi West 11.5 mph - N/A   Clear
1:35 PM 51.8 °F - 19.4 °F 28% 30.30 in 10.0 mi West 11.5 mph - N/A   Clear
1:55 PM 50.0 °F - 17.6 °F 28% 30.30 in 10.0 mi West 13.8 mph - N/A   Clear
2:15 PM 51.8 °F - 19.4 °F 28% 30.30 in 10.0 mi West 13.8 mph - N/A   Clear
2:35 PM 51.8 °F - 19.4 °F 28% 30.30 in 10.0 mi West 15.0 mph 18.4 mph N/A   Clear
2:55 PM 50.0 °F - 19.4 °F 30% 30.30 in 10.0 mi West 13.8 mph - N/A   Clear
3:15 PM 50.0 °F - 19.4 °F 30% 30.31 in 10.0 mi West 16.1 mph - N/A   Clear
3:35 PM 50.0 °F - 19.4 °F 30% 30.31 in 10.0 mi West 15.0 mph - N/A   Clear
3:55 PM 48.2 °F - 19.4 °F 32% 30.31 in 10.0 mi WSW 11.5 mph - N/A   Clear
4:15 PM 48.2 °F - 19.4 °F 32% 30.32 in 10.0 mi WSW 9.2 mph - N/A   Clear
4:35 PM 46.4 °F 41.5 °F 19.4 °F 34% 30.32 in 10.0 mi West 10.4 mph - N/A   Clear
4:55 PM 44.6 °F 41.4 °F 19.4 °F 37% 30.33 in 10.0 mi WSW 5.8 mph - N/A   Clear
5:15 PM 44.6 °F 41.4 °F 19.4 °F 37% 30.33 in 10.0 mi SW 5.8 mph - N/A   Clear
5:35 PM 42.8 °F - 21.2 °F 42% 30.34 in 10.0 mi Calm Calm - N/A   Clear
5:55 PM 41.0 °F - 23.0 °F 49% 30.35 in 10.0 mi Calm Calm - N/A   Clear
6:15 PM 41.0 °F 36.4 °F 21.2 °F 45% 30.35 in 10.0 mi East 6.9 mph - N/A   Clear
6:35 PM 39.2 °F 35.0 °F 23.0 °F 52% 30.36 in 10.0 mi ESE 5.8 mph - N/A   Clear
7:35 PM 37.4 °F 32.8 °F 23.0 °F 56% 30.37 in 10.0 mi ESE 5.8 mph - N/A   Clear
7:55 PM 35.6 °F 29.9 °F 23.0 °F 60% 30.37 in 10.0 mi SE 6.9 mph - N/A   Clear
8:15 PM 35.6 °F 28.6 °F 23.0 °F 60% 30.37 in 10.0 mi ESE 9.2 mph - N/A   Clear
8:35 PM 35.6 °F 28.6 °F 23.0 °F 60% 30.37 in 10.0 mi SE 9.2 mph - N/A   Clear
8:55 PM 35.6 °F 28.6 °F 21.2 °F 56% 30.37 in 10.0 mi SE 9.2 mph - N/A   Clear
9:15 PM 35.6 °F 29.9 °F 21.2 °F 56% 30.38 in 10.0 mi SE 6.9 mph - N/A   Clear
9:35 PM 35.6 °F 30.7 °F 21.2 °F 56% 30.39 in 10.0 mi ESE 5.8 mph - N/A   Clear
9:55 PM 33.8 °F 27.7 °F 19.4 °F 56% 30.39 in 10.0 mi ESE 6.9 mph - N/A   Clear
10:15 PM 33.8 °F 28.6 °F 19.4 °F 56% 30.39 in 10.0 mi SE 5.8 mph - N/A   Clear
10:35 PM 33.8 °F 28.6 °F 21.2 °F 60% 30.39 in 10.0 mi SE 5.8 mph - N/A   Clear
10:55 PM 33.8 °F 28.6 °F 21.2 °F 60% 30.39 in 10.0 mi SE 5.8 mph - N/A   Clear
11:15 PM 33.8 °F 28.6 °F 19.4 °F 56% 30.39 in 10.0 mi ESE 5.8 mph - N/A   Clear
11:35 PM 33.8 °F 28.6 °F 19.4 °F 56% 30.39 in 10.0 mi SE 5.8 mph - N/A   Clear
11:55 PM 33.8 °F 28.6 °F 17.6 °F 52% 30.39 in 10.0 mi East 5.8 mph - N/A   Clear